Location: Unspecified
(0.0000°N, 1.0000°E)
Time: 11:51:54
(UTC+02:00)

Amateur Radio Satellites - All Passes

Search period start: 28 May 2016 11:21
Search period end: 29 May 2016 11:21
Location: Unspecified, 0.0000°N, 1.0000°E

Satellite Date Start Highest point End Downlink Frequencies (MHz)
Time Altitude Azimuth
UWE-3 28 May 11:28:30 11:31:41 20° 281° (W) 11:34:57 435.000/436.395/437.385
FUNcube-1 28 May 11:30:46 11:34:38 33° 281° (W) 11:38:36 145.935
ANTELSAT 28 May 11:32:17 11:36:27 36° 79° (ENE) 11:40:30 437.575/2403.000
SO-50 28 May 11:36:35 11:40:28 29° 68° (ENE) 11:44:17 436.795
POPSAT HIP 1 28 May 12:08:38 12:10:08 12° 78° (ENE) 12:11:39 437.405
QB50P1 28 May 12:08:48 12:10:29 12° 78° (ENE) 12:12:10 145.935-145.965
Cosmos 2499 28 May 12:09:59 12:18:18 46° 267° (W) 12:26:30 435.465 / 435.565
QB50P2 28 May 12:10:41 12:12:58 14° 78° (ENE) 12:15:13 145.880/145.840
POLYITAN 1 28 May 12:13:04 12:15:26 15° 78° (ENE) 12:17:46 437.675
ESTCUBE 1 28 May 12:21:33 12:25:09 24° 102° (ESE) 12:28:46 437.505/2401.250
BEESAT 2 28 May 12:22:53 12:25:39 18° 292° (WNW) 12:28:25 435.950
NANOSAT C BR1 28 May 12:25:26 12:28:38 21° 78° (ENE) 12:31:47 145.865
UNISAT 6 28 May 12:27:37 12:31:45 35° 258° (WSW) 12:35:46 437.425
HUMSAT D 28 May 12:33:35 12:36:58 24° 281° (WNW) 12:40:24 437.325/437.525
CUBEBUG 1 28 May 12:33:36 12:36:50 21° 102° (ESE) 12:40:03 437.445
TIGRISAT 28 May 12:35:10 12:39:07 30° 258° (WSW) 12:42:58 435.000
DX 1 28 May 12:35:16 12:38:02 17° 103° (ESE) 12:40:47 434.975-435.025
GONETS M04 28 May 12:38:14 12:42:27 14° 267° (W) 12:46:41
VELOX 1 28 May 12:41:27 12:45:06 26° 102° (ESE) 12:48:46 145.980
CUSAT 1 28 May 12:48:45 12:53:17 70° 276° (W) 12:59:20 437.405
DANDE 28 May 12:48:59 12:52:20 30° 91° (E) 12:56:36 436.750
JUGNU 28 May 12:49:17 12:54:24 29° 18° (NNE) 12:59:29 437.505
SRMSAT 28 May 12:56:18 12:58:44 12° 9° (N) 13:01:09 437.500
AIST 2 28 May 12:57:58 13:01:33 29° 112° (ESE) 13:05:08 435.215
SPROUT 28 May 12:59:23 13:01:28 13° 102° (ESE) 13:03:32 437.525
DUCHIFAT 1 28 May 13:02:42 13:06:56 70° 79° (E) 13:11:08 145.980
AISAT 28 May 13:16:51 13:21:12 87° 288° (WNW) 13:25:36 437.250
BUGSAT 1 28 May 13:18:49 13:22:52 43° 78° (ENE) 13:26:53 437.445
SO-50 28 May 13:19:05 13:20:39 12° 248° (WSW) 13:22:14 436.795
UKube-1 28 May 13:22:00 13:26:15 62° 102° (ESE) 13:30:30 .
50 SAT 28 May 13:26:49 13:30:23 44° 281° (WNW) 13:33:57 437.505
POPSAT HIP 1 28 May 13:42:03 13:45:40 27° 258° (WSW) 13:49:16 437.405
QB50P1 28 May 13:42:26 13:46:00 26° 258° (WSW) 13:49:34 145.935-145.965
QB50P2 28 May 13:45:09 13:48:30 22° 258° (WSW) 13:51:50 145.880/145.840
POLYITAN 1 28 May 13:47:39 13:50:58 22° 258° (WSW) 13:54:15 437.675
JAS-2 28 May 13:55:22 14:01:25 40° 76° (ENE) 14:08:07 435.910
ESTCUBE 1 28 May 13:59:03 14:01:42 15° 282° (WNW) 14:04:20 437.505/2401.250
NANOSAT C BR1 28 May 14:01:34 14:04:05 15° 258° (WSW) 14:06:36 145.865
CUBEBUG 1 28 May 14:10:14 14:12:51 16° 282° (WNW) 14:15:28 437.445
DX 1 28 May 14:10:49 14:13:57 20° 282° (WNW) 14:17:06 434.975-435.025
Oscar 19 28 May 14:14:42 14:18:39 22° 77° (ENE) 14:22:34 437.125/150
VELOX 1 28 May 14:19:19 14:21:18 13° 282° (WNW) 14:23:19 145.980
SPROUT 28 May 14:33:46 14:37:08 23° 282° (WNW) 14:40:33 437.525
JUGNU 28 May 14:37:36 14:43:33 77° 21° (NNE) 14:49:28 437.505
AIST 2 28 May 14:39:42 14:39:47 10° 292° (WNW) 14:39:52 435.215
Gurwin Techsat 1B 28 May 14:43:01 14:46:02 15° 77° (ENE) 14:49:04 435.225
SRMSAT 28 May 14:43:49 14:48:37 25° 18° (NNE) 14:53:23 437.500
BEESAT 28 May 14:49:47 14:51:02 11° 103° (ESE) 14:52:18 436.000
TISAT 1 28 May 14:54:58 14:59:03 60° 282° (WNW) 15:03:10 437.305
JAS-2 28 May 15:41:38 15:46:15 21° 259° (W) 15:51:15 435.910
AO-7 28 May 15:45:32 15:47:24 11° 72° (ENE) 15:49:15 29.400- 29.500
Oscar 19 28 May 15:53:39 15:57:41 23° 257° (WSW) 16:01:42 437.125/150
SWISSCUBE 28 May 15:54:08 15:58:55 82° 284° (WNW) 16:03:44 437.505
Cosmos 2491 28 May 15:54:24 16:00:36 22° 87° (E) 16:06:47 435.465 / 435.565
ITUPSAT 1 28 May 16:00:38 16:05:26 79° 281° (WNW) 16:10:16 437.325
Gurwin Techsat 1B 28 May 16:20:59 16:25:42 33° 257° (WSW) 16:30:26 435.225
BEESAT 28 May 16:24:08 16:28:32 37° 282° (WNW) 16:32:56 436.000
JUGNU 28 May 16:27:10 16:32:38 38° 200° (SSW) 16:38:04 437.505
RS-15 28 May 16:28:16 16:38:22 43° 111° (ESE) 16:48:43 29.354- 29.394
SRMSAT 28 May 16:32:06 16:37:58 65° 22° (NNE) 16:43:50 437.500
ITAMSAT 1 28 May 16:35:36 16:40:45 73° 257° (WSW) 16:45:53 435.822/435.867
AO-85 28 May 17:03:42 17:06:40 20° 67° (ENE) 17:09:32 145.980
KKS-1 28 May 17:08:25 17:12:45 59° 102° (ESE) 17:17:07 437.445
YUBILEINY 28 May 17:20:43 17:29:28 84° 273° (W) 17:38:10 435.215
MOZHAYETS 4 28 May 17:28:41 17:33:19 78° 102° (ESE) 17:37:58
AO-7 28 May 17:31:24 17:39:42 81° 254° (WSW) 17:47:59 29.400- 29.500
STARS 28 May 17:42:09 17:46:29 76° 103° (ESE) 17:50:51 437.465
Cosmos 2491 28 May 17:48:51 17:57:02 46° 267° (W) 18:05:14 435.465 / 435.565
Cosmos 2504 28 May 17:56:49 18:03:15 35° 93° (E) 18:09:39 435.465 / 435.565
JUGNU 28 May 18:18:24 18:22:04 17° 194° (SSW) 18:25:43 437.505
SRMSAT 28 May 18:21:32 18:27:11 45° 200° (SSW) 18:32:50 437.500
RS-15 28 May 18:41:00 18:50:16 32° 292° (WNW) 18:59:57 29.354- 29.394
AO-85 28 May 18:45:09 18:46:47 12° 249° (WSW) 18:48:25 145.980
HORYU 2 28 May 18:47:53 18:52:03 40° 257° (WSW) 18:56:11 437.375
CUBESAT XI-V 28 May 18:56:05 19:00:44 72° 102° (ESE) 19:05:23 437.345
PHONESAT 2.4 28 May 19:01:56 19:04:55 41° 137° (SE) 19:07:54 2401.200-2431.200
NOAA 15 28 May 19:02:30 19:07:09 32° 77° (ENE) 19:11:48 137.62
Cubesat XI-IV 28 May 19:10:38 19:14:51 24° 77° (ENE) 19:19:03 437.490
NOAA 18 28 May 19:14:41 19:19:42 36° 77° (ENE) 19:24:38 137.9125
BRITE-PL 28 May 19:22:05 19:27:05 42° 78° (ENE) 19:32:20 437.365/2234.400
ISS 28 May 19:23:29 19:26:31 36° 125° (SE) 19:29:32 145.825
LilacSat-2 28 May 19:31:05 19:34:38 36° 79° (E) 19:38:09 437.200
GOMX 1 28 May 19:43:01 19:47:45 31° 78° (ENE) 19:52:31 467.674
Cosmos 2504 28 May 19:51:12 19:56:15 21° 273° (W) 20:01:20 435.465 / 435.565
CUTE-I 28 May 19:55:29 20:00:49 86° 81° (E) 20:06:07 437.470
SRMSAT 28 May 20:12:35 20:16:42 19° 195° (SSW) 20:20:50 437.500
DOVE 4 28 May 20:27:27 20:32:29 44° 79° (ENE) 20:37:29 437.250
STRAND 1 28 May 20:34:15 20:39:16 53° 103° (ESE) 20:44:17 437.568
CANX-2 28 May 20:39:37 20:40:24 10° 78° (ENE) 20:41:12 2200.000
NOAA 15 28 May 20:43:27 20:46:39 16° 257° (WSW) 20:49:50 137.62
Cubesat XI-IV 28 May 20:50:39 20:54:39 22° 257° (WSW) 20:58:38 437.490
AUBIESAT-1 28 May 20:50:52 20:54:12 21° 76° (ENE) 20:57:23 437.475
CINEMA 3 28 May 20:53:18 20:56:56 21° 79° (E) 21:00:30 145.822/145.860
NOAA 18 28 May 20:56:57 21:00:03 15° 256° (WSW) 21:03:08 137.9125
M-CUBED/EXP-1 PRIME 28 May 20:57:31 21:01:39 33° 75° (ENE) 21:05:35 437.505
PCSat 28 May 20:58:52 21:03:42 34° 71° (ENE) 21:08:32 145.827
BRITE-PL 28 May 21:02:57 21:05:20 13° 259° (W) 21:07:46 437.365/2234.400
CUTE 1.7 + AOD 2 28 May 21:04:12 21:07:27 22° 79° (ENE) 21:10:40 437.475
GONETS M04 28 May 21:19:46 21:23:21 13° 93° (E) 21:26:54
GOMX 1 28 May 21:21:54 21:25:31 18° 258° (WSW) 21:29:12 467.674
COMPASS 1 28 May 21:23:04 21:25:45 17° 78° (ENE) 21:28:26 437.405
AAUSAT CUBESAT 2 28 May 21:25:23 21:27:23 13° 78° (ENE) 21:29:23 437.432
AIST 1 28 May 21:30:01 21:33:45 28° 94° (E) 21:37:31
CUBEBUG 2 28 May 21:37:30 21:40:28 17° 79° (E) 21:43:22 437.445
HO-68 28 May 21:46:37 21:53:48 89° 74° (ENE) 22:00:57 435.675
PRISM 28 May 21:47:21 21:51:23 55° 102° (ESE) 21:55:25 437.425
JUGNU 28 May 22:00:54 22:02:15 11° 173° (S) 22:03:35 437.505
O/OREOS (USA 219) 28 May 22:01:54 22:06:08 44° 256° (WSW) 22:10:25 437.305
UWE-3 28 May 22:03:29 22:07:06 24° 79° (E) 22:10:37 435.000/436.395/437.385
SRMSAT 28 May 22:05:26 22:06:48 11° 186° (S) 22:08:09 437.500
FUNcube-1 28 May 22:06:22 22:08:33 14° 79° (E) 22:10:41 145.935
DOVE 4 28 May 22:07:58 22:09:50 12° 258° (WSW) 22:11:43 437.250
CANX-2 28 May 22:12:23 22:16:00 28° 258° (WSW) 22:19:36 2200.000
SEEDS 28 May 22:12:46 22:16:47 50° 258° (WSW) 22:20:48 437.485
AUBIESAT-1 28 May 22:25:15 22:28:23 19° 253° (WSW) 22:31:26 437.475
Cosmos 2499 28 May 22:29:23 22:34:52 24° 93° (E) 22:40:25 435.465 / 435.565
CINEMA 3 28 May 22:30:00 22:33:47 22° 257° (WSW) 22:37:30 145.822/145.860
M-CUBED/EXP-1 PRIME 28 May 22:34:06 22:35:49 12° 252° (WSW) 22:37:30 437.505
BEESAT 2 28 May 22:39:16 22:41:42 16° 68° (ENE) 22:44:10 435.950
CUTE 1.7 + AOD 2 28 May 22:40:52 22:43:02 14° 258° (WSW) 22:45:11 437.475
PCSat 28 May 22:43:41 22:46:50 16° 250° (WSW) 22:49:58 145.827
Oscar 11 28 May 22:46:33 22:50:50 69° 79° (E) 22:55:05 145.826/435.025
COMPASS 1 28 May 22:58:20 23:01:03 17° 258° (WSW) 23:03:47 437.405
AAUSAT CUBESAT 2 28 May 22:59:28 23:02:36 21° 258° (WSW) 23:05:46 437.432
ZACube-1 28 May 23:02:41 23:07:06 79° 258° (WSW) 23:11:22 437.345
HUMSAT D 28 May 23:04:15 23:06:38 15° 79° (ENE) 23:09:00 437.325/437.525
UNISAT 6 28 May 23:05:36 23:08:13 15° 103° (ESE) 23:10:52 437.425
AIST 1 28 May 23:10:22 23:11:05 10° 274° (W) 23:11:48
BEESAT 3 28 May 23:10:36 23:14:30 73° 249° (WSW) 23:18:24 437.485
GONETS M04 28 May 23:11:00 23:19:47 70° 273° (W) 23:28:32
TIGRISAT 28 May 23:12:24 23:15:24 18° 103° (ESE) 23:18:27 435.000
CUBEBUG 2 28 May 23:13:19 23:16:49 22° 257° (WSW) 23:20:15 437.445
DELFI C3 28 May 23:20:27 23:24:24 84° 79° (ENE) 23:28:20 145.870
UWE-3 28 May 23:40:49 23:43:16 14° 257° (WSW) 23:45:40 435.000/436.395/437.385
FUNcube-1 28 May 23:41:01 23:44:33 24° 258° (WSW) 23:48:00 145.935
ANTELSAT 28 May 23:44:58 23:49:18 56° 102° (ESE) 23:53:46 437.575/2403.000
JUGNU 28 May 23:47:53 23:52:06 20° 164° (SSE) 23:56:20 437.505
SO-50 28 May 23:48:14 23:52:56 59° 112° (ESE) 23:57:44 436.795
CUSAT 1 28 May 23:49:37 23:54:21 25° 79° (E) 23:58:13 437.405
DANDE 28 May 23:54:35 23:57:35 13° 79° (E) 00:00:20 436.750
SRMSAT 28 May 23:56:02 23:57:11 11° 175° (S) 23:58:21 437.500
POPSAT HIP 1 29 May 00:14:02 00:16:15 14° 102° (ESE) 00:18:30 437.405
QB50P1 29 May 00:14:13 00:16:33 15° 102° (ESE) 00:18:53 145.935-145.965
QB50P2 29 May 00:16:28 00:19:13 17° 102° (ESE) 00:21:59 145.880/145.840
BEESAT 2 29 May 00:16:39 00:19:18 17° 248° (WSW) 00:21:57 435.950
POLYITAN 1 29 May 00:18:51 00:21:41 18° 102° (ESE) 00:24:31 437.675
Cosmos 2499 29 May 00:21:38 00:27:36 30° 274° (W) 00:33:42 435.465 / 435.565
NANOSAT C BR1 29 May 00:30:56 00:34:20 24° 102° (ESE) 00:37:46 145.865
ESTCUBE 1 29 May 00:35:09 00:39:17 36° 78° (ENE) 00:43:25 437.505/2401.250
HUMSAT D 29 May 00:39:01 00:42:00 19° 258° (WSW) 00:44:57 437.325/437.525
UNISAT 6 29 May 00:41:08 00:44:39 23° 281° (WNW) 00:48:14 437.425
CUBEBUG 1 29 May 00:43:06 00:46:56 29° 78° (ENE) 00:50:46 437.445
DX 1 29 May 00:44:15 00:47:42 23° 78° (ENE) 00:51:09 434.975-435.025
TIGRISAT 29 May 00:48:36 00:51:49 20° 281° (W) 00:55:06 435.000
VELOX 1 29 May 00:52:38 00:56:47 38° 78° (ENE) 01:00:55 145.980
AIST 2 29 May 00:56:04 00:59:52 36° 68° (ENE) 01:03:41 435.215
SPROUT 29 May 01:06:07 01:08:59 17° 78° (ENE) 01:11:51 437.525
DUCHIFAT 1 29 May 01:08:11 01:12:21 85° 102° (ESE) 01:16:34 145.980
50 SAT 29 May 01:17:15 01:20:50 65° 259° (WSW) 01:24:25 437.505
BUGSAT 1 29 May 01:22:02 01:25:52 46° 102° (ESE) 01:29:45 437.445
AISAT 29 May 01:28:35 01:32:59 59° 258° (WSW) 01:37:22 437.250
UKube-1 29 May 01:30:30 01:34:51 84° 75° (ENE) 01:39:10 .
JAS-2 29 May 01:31:33 01:35:50 19° 100° (E) 01:39:50 435.910
CUSAT 1 29 May 01:32:15 01:36:00 18° 271° (W) 01:39:12 437.405
DANDE 29 May 01:33:33 01:40:41 55° 268° (W) 01:46:16 436.750
JUGNU 29 May 01:35:44 01:41:25 49° 159° (SSE) 01:47:07 437.505
SRMSAT 29 May 01:43:17 01:47:19 18° 165° (SSE) 01:51:22 437.500
POPSAT HIP 1 29 May 01:48:32 01:51:46 22° 282° (WNW) 01:55:01 437.405
QB50P1 29 May 01:48:53 01:52:03 21° 282° (WNW) 01:55:15 145.935-145.965
QB50P2 29 May 01:51:52 01:54:46 18° 282° (WNW) 01:57:40 145.880/145.840
POLYITAN 1 29 May 01:54:24 01:57:13 18° 282° (WNW) 02:00:04 437.675
NANOSAT C BR1 29 May 02:08:03 02:09:49 12° 282° (WNW) 02:11:35 145.865
DX 1 29 May 02:21:08 02:23:37 15° 258° (WSW) 02:26:06 434.975-435.025
CUBEBUG 1 29 May 02:21:20 02:22:56 12° 258° (WSW) 02:24:34 437.445
SPROUT 29 May 02:41:38 02:44:40 19° 258° (WSW) 02:47:42 437.525
Oscar 19 29 May 02:47:16 02:52:16 56° 103° (ESE) 02:57:17 437.125/150
ITUPSAT 1 29 May 02:50:01 02:50:14 10° 77° (ENE) 02:50:27 437.325
TISAT 1 29 May 03:00:20 03:04:28 50° 258° (WSW) 03:08:34 437.305
BEESAT 29 May 03:09:23 03:12:58 21° 78° (ENE) 03:16:32 436.000
JAS-2 29 May 03:15:02 03:20:44 33° 285° (WNW) 03:25:54 435.910
Gurwin Techsat 1B 29 May 03:19:24 03:24:26 44° 102° (ESE) 03:29:29 435.225
JUGNU 29 May 03:24:38 03:30:28 60° 339° (NNW) 03:36:21 437.505
SRMSAT 29 May 03:31:14 03:36:55 42° 160° (SSE) 03:42:34 437.500
ITAMSAT 1 29 May 03:32:55 03:36:28 19° 103° (ESE) 03:40:02 435.822/435.867
YUBILEINY 29 May 03:59:53 04:06:25 23° 87° (E) 04:12:55 435.215
AO-7 29 May 04:07:47 04:13:40 21° 107° (ESE) 04:19:30 29.400- 29.500
RS-15 29 May 04:10:10 04:21:11 39° 68° (ENE) 04:31:49 29.354- 29.394
SWISSCUBE 29 May 04:16:30 04:20:58 41° 258° (WSW) 04:25:23 437.505
ITUPSAT 1 29 May 04:23:23 04:27:47 39° 257° (WSW) 04:32:12 437.325
Cosmos 2491 29 May 04:26:06 04:34:24 45° 93° (E) 04:42:39 435.465 / 435.565
BEESAT 29 May 04:47:08 04:50:29 19° 257° (WSW) 04:53:50 436.000
Gurwin Techsat 1B 29 May 05:02:32 05:04:06 11° 283° (WNW) 05:05:40 435.225
ITAMSAT 1 29 May 05:11:17 05:15:40 27° 283° (WNW) 05:20:04 435.822/435.867
AO-85 29 May 05:13:51 05:18:51 48° 111° (ESE) 05:24:03 145.980
JUGNU 29 May 05:15:01 05:19:43 24° 343° (NNW) 05:24:27 437.505
SRMSAT 29 May 05:20:10 05:26:10 71° 339° (NNW) 05:32:09 437.500
KKS-1 29 May 05:20:49 05:25:20 89° 279° (W) 05:29:48 437.445
HORYU 2 29 May 05:26:03 05:28:06 13° 103° (ESE) 05:30:10 437.375
MOZHAYETS 4 29 May 05:45:37 05:50:06 60° 258° (WSW) 05:54:34
STARS 29 May 05:53:03 05:57:29 75° 258° (WSW) 06:01:54 437.465
YUBILEINY 29 May 05:54:36 06:02:47 44° 267° (W) 06:11:04 435.215
AO-7 29 May 05:58:01 06:06:01 51° 286° (WNW) 06:14:04 29.400- 29.500
Cosmos 2504 29 May 06:06:04 06:14:39 55° 87° (E) 06:23:11 435.465 / 435.565
RS-15 29 May 06:22:11 06:33:12 40° 249° (WSW) 06:43:55 29.354- 29.394
Cosmos 2491 29 May 06:24:20 06:30:49 23° 273° (W) 06:37:19 435.465 / 435.565
PHONESAT 2.4 29 May 06:31:16 06:33:50 24° 43° (NE) 06:36:25 2401.200-2431.200
CUTE-I 29 May 06:57:00 07:00:19 17° 103° (ESE) 07:03:37 437.470
AO-85 29 May 06:57:29 06:59:14 11° 294° (WNW) 07:00:58 145.980
ISS 29 May 06:57:33 07:00:07 21° 55° (NE) 07:02:41 145.825
HORYU 2 29 May 07:00:38 07:04:22 27° 282° (WNW) 07:08:10 437.375
JUGNU 29 May 07:07:11 07:09:30 12° 351° (N) 07:11:51 437.505
SRMSAT 29 May 07:10:30 07:15:32 27° 342° (NNW) 07:20:32 437.500
CUBESAT XI-V 29 May 07:14:26 07:19:01 63° 258° (WSW) 07:23:36 437.345
LilacSat-2 29 May 07:25:43 07:29:03 29° 102° (ESE) 07:32:24 437.200
NOAA 15 29 May 07:39:14 07:44:30 90° 117° (ESE) 07:49:45 137.62
Cubesat XI-IV 29 May 07:48:57 07:54:18 72° 102° (ESE) 07:59:40 437.490
BRITE-PL 29 May 07:49:57 07:54:28 89° 90° (E) 07:58:44 437.365/2234.400
NOAA 18 29 May 07:58:30 08:03:58 70° 283° (WNW) 08:09:29 137.9125
Cosmos 2504 29 May 08:01:47 08:07:37 20° 267° (W) 08:13:30 435.465 / 435.565
GOMX 1 29 May 08:07:26 08:11:33 52° 101° (ESE) 08:15:35 467.674
PHONESAT 2.4 29 May 08:08:42 08:10:27 14° 222° (SW) 08:12:11 2401.200-2431.200
CUTE-I 29 May 08:35:21 08:40:04 32° 283° (WNW) 08:44:49 437.470
ISS 29 May 08:35:27 08:36:22 11° 234° (SW) 08:37:16 145.825
O/OREOS (USA 219) 29 May 08:35:51 08:38:06 13° 105° (ESE) 08:40:21 437.305
CANX-2 29 May 08:44:38 08:46:50 14° 102° (ESE) 08:49:03 2200.000
DOVE 4 29 May 08:48:49 08:52:56 76° 100° (E) 08:57:06 437.250
AUBIESAT-1 29 May 08:50:59 08:52:53 14° 107° (ESE) 08:54:52 437.475
M-CUBED/EXP-1 PRIME 29 May 08:57:59 09:00:46 24° 107° (ESE) 09:03:44 437.505
SRMSAT 29 May 09:02:37 09:05:22 13° 350° (N) 09:08:08 437.500
STRAND 1 29 May 09:06:55 09:11:56 60° 257° (WSW) 09:16:56 437.568
CINEMA 3 29 May 09:09:10 09:12:46 28° 102° (ESE) 09:16:30 145.822/145.860
CUTE 1.7 + AOD 2 29 May 09:10:07 09:13:46 27° 101° (ESE) 09:17:26 437.475
COMPASS 1 29 May 09:26:53 09:29:59 20° 102° (ESE) 09:33:05 437.405
AAUSAT CUBESAT 2 29 May 09:28:31 09:31:03 16° 102° (ESE) 09:33:33 437.432
PCSat 29 May 09:34:29 09:39:53 76° 290° (WNW) 09:45:16 145.827
AIST 1 29 May 09:36:23 09:40:23 39° 86° (E) 09:44:22
HO-68 29 May 09:38:07 09:45:16 76° 104° (ESE) 09:52:28 435.675
CUBEBUG 2 29 May 09:48:56 09:52:24 24° 102° (ESE) 09:55:58 437.445
GONETS M04 29 May 09:49:42 09:56:50 29° 87° (E) 10:03:59
PRISM 29 May 09:50:10 09:54:13 61° 78° (ENE) 09:58:17 437.425
O/OREOS (USA 219) 29 May 10:13:24 10:17:14 26° 284° (WNW) 10:21:03 437.305
UWE-3 29 May 10:13:55 10:17:49 33° 102° (ESE) 10:21:50 435.000/436.395/437.385
FUNcube-1 29 May 10:14:41 10:17:44 19° 102° (ESE) 10:20:50 145.935
SEEDS 29 May 10:18:03 10:22:04 42° 281° (WNW) 10:26:06 437.485
CANX-2 29 May 10:19:00 10:22:25 23° 281° (WNW) 10:25:52 2200.000
AUBIESAT-1 29 May 10:25:15 10:27:10 14° 284° (WNW) 10:29:09 437.475
BEESAT 2 29 May 10:32:47 10:35:22 17° 112° (ESE) 10:37:58 435.950
Cosmos 2499 29 May 10:36:52 10:44:57 39° 87° (E) 10:52:50 435.465 / 435.565
JUGNU 29 May 10:46:30 10:49:49 15° 12° (NNE) 10:53:09 437.505
CUTE 1.7 + AOD 2 29 May 10:47:54 10:49:21 12° 282° (WNW) 10:50:48 437.475
CINEMA 3 29 May 10:48:58 10:49:42 10° 281° (W) 10:50:28 145.822/145.860
Oscar 11 29 May 10:55:07 10:59:28 87° 282° (WNW) 11:03:50 145.826/435.025
COMPASS 1 29 May 11:02:46 11:05:16 15° 282° (WNW) 11:07:46 437.405
BEESAT 3 29 May 11:03:08 11:07:02 71° 291° (WNW) 11:10:55 437.485
AAUSAT CUBESAT 2 29 May 11:03:13 11:06:15 20° 281° (WNW) 11:09:18 437.432
HUMSAT D 29 May 11:08:19 11:11:17 18° 102° (ESE) 11:14:15 437.325/437.525
ZACube-1 29 May 11:12:17 11:16:31 56° 281° (WNW) 11:20:53 437.345
